Location: Ellerstadt
(49.4644°N, 8.2615°E)
Time: 23:14:11
(UTC+00:00)

USA 307 - Pass Details

Date: 03 March 2021
Orbit: 567 x 577 km, 54.0° (Epoch: 13 April)

Event Time Altitude Azimuth Distance (km) Brightness Sun altitude
Rises 19:56:35 0° 291° (WNW) 2,785 7.7 -26.8°
Reaches altitude 10° 19:58:53 10° 296° (WNW) 1,884 6.5 -27.2°
Enters shadow 20:02:01 42° 325° (NW) 828 4.0 -27.6°
